Regional Weather Roundup
Issued by NWS

Home | Current Version | Previous Version | Graphics & Text | Print | Product List | Glossary On
Versions: 1 2 3 4 5 6 7 8 9 10 11 12 13 14 15 16 17 18 19 20 21 22 23 24 25 26 27 28 29 30 31 32 33 34 35 36 37 38 39 40 41 42 43 44 45 46 47 48 49 50
000
ASUS45 KTFX 232310
RWRMT
MONTANA REGIONAL WEATHER ROUNDUP
NATIONAL WEATHER SERVICE GREAT FALLS MT
500 PM MDT SUN JUL 23 2017

NOTE: "FAIR" INDICATES FEW OR NO CLOUDS BELOW 12000 FEET WITH NO
SIGNIFICANT WEATHER AND/OR OBSTRUCTIONS TO VISIBILITY.

MTZ001>007-043-240000-
WEST OF THE DIVIDE

CITY           SKY/WX    TMP DP  RH WIND       PRES   REMARKS
KALISPELL      SUNNY     91  47  21 S14       29.85F
MISSOULA       SUNNY     93  45  19 VRB3      29.87F
BUTTE          MOSUNNY   90  31  12 W7G16     30.03F
MULLAN PASS    SUNNY     77  45  32 VRB3      30.13F
ANACONDA         N/A     88  46  23 N8        29.98F
DEER LODGE       N/A     90  43  19 NW7       29.98F
EUREKA           N/A     91  45  19 MISG      29.83F
HAMILTON         N/A     91  45  19 CALM      29.90F
LIBBY            N/A     91  48  22 SE5       29.83F
PLAINS           N/A     93  51  23 W9        29.86F HX  90
$$

MTZ008-052>055-240000-
SOUTHWEST MONTANA

CITY           SKY/WX    TMP DP  RH WIND       PRES   REMARKS
BOZEMAN        MOSUNNY   91  43  18 NE8       29.96F
DILLON         SUNNY     89  41  18 SW7       29.99F
W YELLOWSTONE  SUNNY     82  28  14 SW17G24   30.18F
ENNIS          SUNNY     91  28  10 S18G24    30.06F
THREE FORKS      N/A     93  40  15 SE5       29.94F
TWIN BRIDGES     N/A     92  45  19 SE1       29.97F
$$

MTZ009-010-012-014-046-048-049-054-240000-
EAST SLOPES AND CENTRAL MONTANA

CITY           SKY/WX    TMP DP  RH WIND       PRES   REMARKS
CUT BANK       SUNNY     93  37  14 W21G26    29.86F
GREAT FALLS    SUNNY     96  37  12 SW13G18   29.85F HX  91
HELENA         SUNNY     96  40  14 E8        29.88F HX  92
CHOTEAU          N/A     93  39  15 S10       29.87F
CONRAD           N/A     94  47  20 SW5       29.89F HX  90
$$

MTZ011-013-016-021-045-047-050-051-240000-
NORTH CENTRAL MONTANA

CITY           SKY/WX    TMP DP  RH WIND       PRES   REMARKS
HAVRE          SUNNY     97  40  14 S12       29.80F HX  92
LEWISTOWN      SUNNY     94  37  13 NE6       29.91F
N BAR RANCH      N/A     91  34  13 N6        29.97F
CHINOOK          N/A     97  45  16 W7        29.79F HX  93
$$

MTZ017>020-022>027-061-062-240000-
NORTHEAST MONTANA

CITY           SKY/WX    TMP DP  RH WIND       PRES   REMARKS
GLASGOW        SUNNY     97  39  13 SE15G26   29.81F HX  92
JORDAN           N/A     98  34  10 S9G16     29.84F HX  92
SIDNEY         SUNNY     94  51  23 SE5       29.88F HX  91
WOLF POINT     SUNNY     99  40  13 SW7       29.83F HX  94
MALTA          SUNNY     99  39  12 S6G13     29.79F HX  94
PLENTYWOOD       N/A     93  45  18 S8G16     29.88F
POPLAR           N/A     97  45  16 S7        29.85F HX  93
SCOBEY           N/A     94  44  17 S9        29.86F HX  90
$$

MTZ028>42-056>058-240000-
SOUTHCENTRAL AND SOUTHEAST MONTANA

CITY           SKY/WX    TMP DP  RH WIND       PRES   REMARKS
BAKER          SUNNY    N/A N/A N/A S14G20    29.94F
BILLINGS       PTSUNNY   94  29  10 VRB3      29.91F
LIVINGSTON     PTSUNNY   91  35  13 S13       29.98S
MILES CITY     SUNNY     98  34  10 SE8G16    29.87F HX  92
BIG TIMBER     SUNNY     90  36  14 S25G35    29.99F
EKALAKA          N/A     92  41  17 S3        29.97F
FORSYTH          N/A     99  36  11 S8        29.86F HX  93
LAUREL           N/A     94  44  17 NE2       29.92S HX  90
ROUNDUP          N/A     96  33  11 SE8       29.83F HX  90
$$

REGIONAL REPORTS...DAKOTAS

CITY           SKY/WX    TMP DP  RH WIND       PRES   REMARKS
WILLISTON      SUNNY     94  48  20 W6        29.90F HX  90
MINOT            N/A     86  50  28 CALM      29.95F
DICKINSON      SUNNY     89  51  27 E9        29.95F
BEACH            N/A     91  41  17 SE8G21    29.97F
CROSBY           N/A     90  48  24 SE9       29.91F
TIOGA            N/A     88  46  23 VRB5      29.95F
WATFORD CITY     N/A     91  48  22 E5        29.91F
BISMARCK       SUNNY     85  56  37 SE9       29.98F
GRAND FORKS    PTSUNNY   80  62  54 CALM      29.97F
FARGO            N/A     78  61  55 CALM      29.98F
BUFFALO SD       N/A     91  46  21 S7        29.91F
RAPID CITY     SUNNY     92  45  19 SE12      29.99F
$$

REGIONAL REPORTS...WYOMING/IDAHO/WASHINGTON

CITY           SKY/WX    TMP DP  RH WIND       PRES   REMARKS
GILLETTE       MOSUNNY   93  39  15 S9G16     29.98F
SHERIDAN       PTSUNNY   93  37  14 N7        29.96F
BUFFALO WY     MOSUNNY   94  37  13 NE9       30.03F
CODY           CLOUDY    87  35  15 SW7       30.04F
YELLOWSTONE LA   N/A     68  48  48 CALM      30.30F
IDAHO FALLS    MOSUNNY   93  38  14 S16       30.03F
BOISE          SUNNY     97  38  13 NW12      29.90F HX  92
SPOKANE        MOSUNNY   91  48  22 W20G26    29.88F
$$

REGIONAL REPORTS...ALBERTA

CITY           SKY/WX    TMP DP  RH WIND       PRES   REMARKS
CALGARY        PTSUNNY   84  45  24 VRB6      29.76F
LETHBRIDGE     MOSUNNY   93  46  20 W17       29.77F
MEDICINE HAT   MOSUNNY   95  48  20 SW8       29.74F HX  91
WATERTON GATE    N/A     86  45  23 SW14G23     N/A
CARDSTON         N/A     88  48  25 SW10        N/A
$$

REGIONAL REPORTS...SASKATCHEWAN

CITY           SKY/WX    TMP DP  RH WIND       PRES   REMARKS
SWIFT CURRENT  SUNNY     91  46  21 W12G20    29.82F
REGINA         MOSUNNY   91  52  25 SE17      29.82F
SASKATOON      MOSUNNY   86  55  35 W7        29.80F
ROCKGLEN         N/A     91  39  16 SW14G21     N/A
ASSINIBOIA       N/A     73  55  53 NE8         N/A
$$



USA.gov is the U.S. government's official web portal to all federal, state and local government web resources and services.